Orbital Elements at Epoch 2459200.5 (2020-Dec-17.0) TDB
Reference: JPL 31 (heliocentric ecliptic J2000)
Element | Value | Uncertainty (1-sigma) | Units |
e | .1343407768564971 | 2.2575e-08 | |
a | 2.671365559464411 | 1.1758e-08 | au |
q | 2.312492234938271 | 6.1049e-08 | au |
i | 12.38346496277892 | 8.302e-07 | deg |
node | 60.95945240712118 | 3.4944e-06 | deg |
peri | 108.704352795307 | 6.8564e-06 | deg |
M | 138.19181293134 | 6.1985e-06 | deg |
tp | 2458588.321286637695 (2019-Apr-14.82128664) | 2.4987e-05 | TDB |
period | 1594.771297485813 4.37 | 1.0529e-05 2.883e-08 | d yr |
n | .2257376970400375 | 1.4904e-09 | deg/d |
Q | 3.030238883990551 | 1.3337e-08 | au |
|
| | Orbit Determination Parameters
Additional Information
|